This is the latest recevied weather packets stored in our database for station/object N3FAA. If no packets are shown the sender has not sent any weather packets the latest 10 day(s).
| Time | Temp. | Humidity | Pressure | Rain* | Wind** | Luminosity | Snow |
|---|---|---|---|---|---|---|---|
| 1778104042 | 28.33° C | 24% | 1013.2 hPa | 0 mm | - | 583 W/m² | - |
| 1778103739 | 27.22° C | 25% | 1013.1 hPa | 0 mm | - | 627 W/m² | - |
| 1778103437 | 28.33° C | 23% | 1013 hPa | 0 mm | - | 685 W/m² | - |
| 1778103134 | 28.89° C | 23% | 1013.1 hPa | 0 mm | - | 692 W/m² | - |
| 1778102832 | 28.33° C | 23% | 1013.2 hPa | 0 mm | - | 713 W/m² | - |
| 1778102527 | 28.33° C | 24% | 1013.5 hPa | 0 mm | - | 689 W/m² | - |
| 1778102222 | 27.78° C | 23% | 1013.4 hPa | 0 mm | - | 661 W/m² | - |
| 1778101919 | 27.22° C | 25% | 1013.5 hPa | 0 mm | - | 644 W/m² | - |
| 1778101615 | 27.78° C | 25% | 1013.5 hPa | 0 mm | - | 681 W/m² | - |
| 1778101312 | 27.22° C | 26% | 1013.6 hPa | 0 mm | - | 712 W/m² | - |
| 1778101010 | 27.78° C | 27% | 1013.5 hPa | 0 mm | - | 735 W/m² | - |
| 1778100705 | 27.78° C | 26% | 1013.4 hPa | 0 mm | - | 741 W/m² | - |
| 1778100403 | 27.22° C | 27% | 1013.6 hPa | 0 mm | - | 755 W/m² | - |
| 1778100099 | 27.22° C | 26% | 1013.9 hPa | 0 mm | - | 749 W/m² | - |
| 1778099798 | 27.22° C | 27% | 1013.6 hPa | 0 mm | - | 749 W/m² | - |
| 1778099494 | 26.67° C | 27% | 1013.5 hPa | 0 mm | - | 742 W/m² | - |
| 1778099193 | 26.67° C | 27% | 1013.5 hPa | 0 mm | - | 723 W/m² | - |
| 1778098888 | 27.22° C | 28% | 1013.7 hPa | 0 mm | - | 742 W/m² | - |
| 1778098585 | 26.67° C | 26% | 1013.9 hPa | 0 mm | - | 761 W/m² | - |
| 1778098282 | 26.67° C | 27% | 1014.1 hPa | 0 mm | - | 760 W/m² | - |
| 1778097978 | 27.22° C | 26% | 1014 hPa | 0 mm | - | 730 W/m² | - |
| 1778097675 | 26.67° C | 27% | 1014.1 hPa | 0 mm | - | 708 W/m² | - |
| 1778097372 | 26.11° C | 27% | 1014.1 hPa | 0 mm | - | 709 W/m² | - |
| 1778097068 | 26.67° C | 26% | 1014 hPa | 0 mm | - | 712 W/m² | - |
| 1778096766 | 26.11° C | 27% | 1014.3 hPa | 0 mm | - | 756 W/m² | - |
* Rain latest hour (hover to see other rain measurements)
** Current wind speed in m/s (hover to see current wind gust speed)